Regional Weather Roundup
Issued by NWS

Home | Current Version | Previous Version | Graphics & Text | Print | Product List | Glossary On
Versions: 1 2 3 4 5 6 7 8 9 10 11 12 13 14 15 16 17 18 19 20 21 22 23 24 25 26 27 28 29 30 31 32 33 34 35 36 37 38 39 40 41 42 43 44 45 46 47 48 49 50
000
ASUS43 KOAX 280602
RWRNE

WEATHER ROUNDUP FOR NEBRASKA
NATIONAL WEATHER SERVICE OMAHA NE
100 AM CDT SAT MAR 28 2015

NOTES: SATELLITE DATA IS BEING USED TO AUGMENT CLOUD COVER ABOVE
       12000 FEET.
       "FAIR" INDICATES FEW OR NO CLOUDS BELOW 12,000 FEET WITH NO
       SIGNIFICANT WEATHER AND/OR OBSTRUCTIONS TO VISIBILITY.

  * THESE STATIONS DO NOT REPORT WEATHER SUCH AS RAIN...SNOW OR FOG.

NEZ001>004-019>022-054>056-280700-
NEBRASKA PANHANDLE

CITY           SKY/WX    TMP DP  RH WIND       PRES   REMARKS
SCOTTSBLUFF    CLEAR     45  31  58 NW9       30.02F
6HR MIN TEMP:  43; 6HR MAX TEMP:  69;

ALLIANCE       CLOUDY    37  30  75 W8        30.00S WCI  31
6HR MIN TEMP:  36; 6HR MAX TEMP:  65;

CHADRON        PTCLDY    40  32  73 W7        29.98S
6HR MIN TEMP:  39; 6HR MAX TEMP:  69;

KIMBALL        CLEAR     39  27  62 W6        30.05S WCI  35
SIDNEY         CLEAR     37  29  72 W7        30.04S WCI  32
6HR MIN TEMP:  35; 6HR MAX TEMP:  68;

$$

NEZ057>060-069>072-079>082-280700-
SOUTHWEST NEBRASKA

CITY           SKY/WX    TMP DP  RH WIND       PRES   REMARKS
NORTH PLATTE   PTCLDY    38  33  82 CALM      29.98S
6HR MIN TEMP:  37; 6HR MAX TEMP:  63;

IMPERIAL         N/A     43  31  62 NW3       30.00S
6HR MIN TEMP:  41; 6HR MAX TEMP:  69;

MCCOOK         CLOUDY    43  33  68 CALM      29.98S
6HR MIN TEMP:  43; 6HR MAX TEMP:  68;

$$

NEZ005>010-023>029-035>040-094-280700-
NORTH CENTRAL NEBRASKA

CITY           SKY/WX    TMP DP  RH WIND       PRES   REMARKS
VALENTINE      CLEAR     35  29  78 CALM      29.97R
6HR MIN TEMP:  34; 6HR MAX TEMP:  62;

AINSWORTH      CLOUDY    44  34  68 W3        29.97R
BROKEN BOW     CLEAR     32  30  92 CALM      29.96S
6HR MIN TEMP:  31; 6HR MAX TEMP:  52; 6HR PCP: TRACE;

ORD            PTCLDY    30  24  78 SE3       29.98S
6HR MIN TEMP:  30; 6HR MAX TEMP:  47;

$$

NEZ041-046>049-061>064-073>077-083>087-280700-
SOUTH CENTRAL NEBRASKA

CITY           SKY/WX    TMP DP  RH WIND       PRES   REMARKS
GRAND ISLAND   PTCLDY    32  23  69 S9        30.00F WCI  24
6HR MIN TEMP:  32; 6HR MAX TEMP:  42;

HASTINGS       PTCLDY    35  24  64 CALM      29.98F
6HR MIN TEMP:  35; 6HR MAX TEMP:  45;

HEBRON         MOCLDY    34  23  63 NE5       30.04S WCI  30
KEARNEY *      PTCLDY    36  25  64 S3        29.99R
$$

NEZ011>018-030>034-042>045-280700-
NORTHEAST NEBRASKA

CITY           SKY/WX    TMP DP  RH WIND       PRES   REMARKS
NORFOLK        CLOUDY    33  25  72 SE8       30.03R WCI  26
6HR MIN TEMP:  32; 6HR MAX TEMP:  34;

ALBION         CLOUDY    34  26  71 S8        30.01F WCI  27
BLAIR          CLOUDY    36  21  55 SE8       30.07S WCI  29
COLUMBUS *     CLOUDY    34  21  60 SE6       30.06R WCI  29
TEKAMAH        CLOUDY    36  22  56 SE10      30.09S WCI  28
6HR MIN TEMP:  36; 6HR MAX TEMP:  37;

$$

NEZ050>053-065>068-078-088>093-280700-
SOUTHEAST NEBRASKA

CITY           SKY/WX    TMP DP  RH WIND       PRES   REMARKS
LINCOLN        CLOUDY    36  22  56 SE13      30.06F WCI  27
6HR MIN TEMP:  35; 6HR MAX TEMP:  38;

OMAHA EPPLEY   CLOUDY    37  21  52 SE10      30.10R WCI  30
6HR MIN TEMP:  37; 6HR MAX TEMP:  38;

FALLS CITY     CLOUDY    36  24  62 SE6       30.09F WCI  31
6HR MIN TEMP:  36; 6HR MAX TEMP:  39;

PLATTSMOUTH    CLOUDY    35  21  55 SE10      30.09R WCI  27
$$

NEZ044-045-051>053-067-280700-
OMAHA AREA

CITY           SKY/WX    TMP DP  RH WIND       PRES   REMARKS
OMAHA EPPLEY   CLOUDY    37  21  52 SE10      30.10R WCI  30
6HR MIN TEMP:  37; 6HR MAX TEMP:  38;

BLAIR          CLOUDY    36  21  55 SE8       30.07S WCI  29
OFFUTT AFB     CLOUDY    36  22  57 SE9       30.09R WCI  29
PLATTSMOUTH    CLOUDY    35  21  55 SE10      30.09R WCI  27
$$



USA.gov is the U.S. government's official web portal to all federal, state and local government web resources and services.